Location: Asheville, NC
(35.6000°N, 82.5500°W)
Time: 09:10:12
(UTC-04:00)

XW-2C - Pass Details

Date: 09 January 2018
Orbit: 511 x 529 km, 97.5° (Epoch: 16 July)

Event Time Altitude Azimuth Distance (km) Brightness Sun altitude
Rises 07:08:40 0° 359° (N) 2,654 ? -6.7°
Reaches altitude 10° 07:10:57 10° 349° (NNW) 1,758 ? -6.2°
Maximum altitude 07:14:16 30° 288° (WNW) 958 ? -5.6°
Drops below altitude 10° 07:17:33 10° 226° (SW) 1,737 ? -5.0°
Sets 07:19:48 0° 215° (SW) 2,616 ? -4.6°
